DMSP 5D-3 F18 (USA 210) 1 35951U 09057A 21056.77202951 .00000070 00000-0 59949-4 0 9998 2 35951 98.6707 44.4442 0011342 11.7050 348.4384 14.13334987585789 DMSP 5D-3 F18 DEB 1 35953U 09057C 21056.26650720 .00000462 00000-0 24305-3 0 9997 2 35953 98.5573 69.1327 0004126 353.9503 134.4488 14.18705404586985 DMSP 5D-3 F18 DEB 1 35954U 09057D 21056.49460806 .00000452 00000-0 23931-3 0 9990 2 35954 98.5603 72.5137 0004137 350.9204 164.9152 14.18423140586894 DMSP 5D-3 F18 DEB 1 36099U 09057E 21056.43744910 .00000514 00000-0 24081-3 0 9992 2 36099 98.7067 128.7418 0008627 256.0692 103.9527 14.24452579583129 DMSP 5D-3 F18 DEB 1 36100U 09057F 21056.37173341 .00000519 00000-0 26167-3 0 9994 2 36100 98.6297 98.2334 0008768 321.1019 38.9526 14.20544677584109